Flag for Germany Weather past 2 weeks in Varel, Lower Saxony, Germany

Now
48 °F

Drizzle. Fog.


Feels Like: 42 °F
Forecast: 41 / 46 °F
Wind: 18 mph from West

Location: Wittmundhaven

Current Time: Mar 29, 2015 at 5:39:21 AM

Latest Report: Mar 29, 2015 at 4:20 AM


Visibility: 2 mi

Pressure: 29.50 "Hg

Humidity: 94%

Dew point: 46 °F

Location of VarelLocation

Historic Weather in Varel — Graph

°F

Varel temperature yesterday

Maximum temperature yesterday: 50 °F (at 11:20 PM)
Minimum temperature yesterday: 34 °F (at 5:55 AM)
Average temperature yesterday: 43 °F

Past Weeks' High & Low Weather Summary

 TemperatureHumidityPressure
High57 °F (Mar 17, 3:20 PM)100% (Mar 18, 5:20 AM)30.48 "Hg (Mar 18, 5:20 AM)
Low30 °F (Mar 23, 4:20 AM)31% (Mar 19, 3:20 PM)29.50 "Hg (Mar 29, 3:20 AM)
Average42 °F80%30.10 "Hg
* Reported Mar 14 3:20 AM — Mar 29 4:20 AM, Varel, Weather by CustomWeather, © 2015

Note: Actual official high and low records may vary slightly from our data, if they occured in-between our weather recording intervals... More about our weather records

Advertising

Varel weather history for previous 24 hours

 ConditionsComfort  
Time TempWeatherWind HumidityBarometerVisibility
4:20 AM
Sun, Mar 29
48 °FDrizzle. Fog.18 mph94%29.50 "Hg2 mi
3:20 AM48 °FDrizzle. Fog.18 mph94%29.50 "Hg2 mi
1:20 AM48 °FPassing clouds.17 mph94%29.53 "Hg5 mi
12:20 AM48 °FDrizzle. Fog.16 mph94%29.56 "Hg2 mi
11:20 PM
Sat, Mar 28
50 °FDrizzle. Fog.18 mph94%29.59 "Hg2 mi
10:20 PM48 °FDrizzle. Fog.18 mph100%29.62 "Hg1 mi
9:20 PM48 °FDrizzle. Fog.17 mph94%29.65 "Hg2 mi
8:20 PM48 °FDrizzle. Fog.16 mph94%29.68 "Hg3 mi
7:20 PM46 °FDrizzle. Fog.15 mph100%29.71 "Hg2 mi
6:20 PM46 °FDrizzle. Fog.16 mph93%29.74 "Hg2 mi
5:20 PM45 °FDrizzle. Fog.16 mph100%29.77 "Hg2 mi
4:20 PM46 °FDrizzle. Fog.17 mph87%29.80 "Hg2 mi
4:00 PM46 °FDrizzle. Fog.15 mph87%29.80 "Hg3 mi
3:20 PM46 °FLight rain. Partly sunny.16 mph82%29.83 "Hg4 mi
2:20 PM48 °FLight rain. Partly sunny.17 mph66%29.89 "Hg6 mi
1:20 PM48 °FPartly sunny.17 mph58%29.92 "HgN/A
12:20 PM48 °FScattered clouds.18 mph54%29.98 "HgN/A
11:20 AM46 °FScattered clouds.13 mph66%30.01 "HgN/A
10:20 AM43 °FScattered clouds.12 mph81%30.04 "Hg5 mi
9:49 AM41 °FFog.10 mph93%30.07 "Hg2 mi
9:20 AM37 °FFog.12 mph100%30.07 "Hg1 mi
8:20 AM37 °FFog.7 mph93%30.09 "Hg0 mi
7:20 AM36 °FFog.5 mph100%30.12 "Hg0 mi
6:20 AM34 °FFog.5 mph93%30.12 "Hg0 mi
5:59 AM34 °FFog.5 mph100%30.12 "Hg0 mi
5:55 AM34 °FFog.5 mph100%30.12 "Hg1 mi
5:20 AM36 °FPassing clouds.5 mph93%30.12 "HgN/A
Weather by CustomWeather, © 2015

See weather overviewHow to use our weather pages